Regional Weather Roundup
Issued by NWS Portland, ME

Home | Current Version | Previous Version | Text Only | Print | Product List | Glossary On
Versions: 1 2 3 4 5 6 7 8 9 10 11 12 13 14 15 16 17 18 19 20 21 22 23 24 25 26 27 28 29 30 31 32 33 34 35 36 37 38 39 40 41 42 43 44 45 46 47 48 49 50
000
ASUS41 KGYX 020510
RWRGYX
WEATHER ROUNDUP FOR MAINE AND NEW HAMPSHIRE
NATIONAL WEATHER SERVICE GRAY ME
1200 AM EST MON MAR 02 2015

MEZ002-005-006-010-012-015-018-020-021-024-026-027-029-020600-
MAINE

CITY           SKY/WX    TMP DP  RH WIND       PRES   REMARKS
PORTLAND       LGT SNOW  26  23  88 SW6       30.09F FOG
SANFORD        MOCLDY    25  21  86 W6        30.10F
BAR HARBOR     CLOUDY    27  27 100 SW6       30.09F
WISCASSET      LGT SNOW  26  24  92 VRB5      30.10F FOG
ROCKLAND       CLOUDY    27  25  93 W6        30.08F
FRYEBURG       CLOUDY    22  19  89 CALM      30.05F
LEWISTONAUBURN CLOUDY    25  19  80 S5        30.06F
AUGUSTA        LGT SNOW  23  20  88 SW3       30.07F FOG
WATERVILLE     CLOUDY    23  19  86 SW3       30.03F
BANGOR         LGT SNOW  24  22  91 S3        30.08F FOG
GREENVILLE       N/A     17  15  92 E3        29.94F
MILLINOCKET    LGT SNOW  23  19  85 CALM      30.05F FOG
HOULTON        LGT SNOW  22  18  85 S6        30.01F FOG
PRESQUE ISLE   CLOUDY    21  10  63 SE8       30.01F
FRENCHVILLE    CLOUDY    20   4  50 S6        29.97F
CARIBOU        CLOUDY    21  10  62 S5        30.00F
$$

NHZ002-005-008-009-011-012-014-020600-
NEW HAMPSHIRE

CITY           SKY/WX    TMP DP  RH WIND       PRES   REMARKS
PORTSMOUTH     LGT SNOW  26  23  90 SW5       30.08F FOG
ROCHESTER      LGT SNOW  24  22  91 CALM      30.07F FOG
NASHUA         MOCLDY    25  23  91 CALM      30.11F
MANCHESTER     LGT SNOW  25  24  96 CALM      30.08F
CONCORD        CLOUDY    23  20  88 CALM      30.09F FOG
LACONIA        CLOUDY    23  19  86 W6        30.05F
PLYMOUTH       LGT SNOW  22  22 100 CALM      30.07F
BERLIN         LGT SNOW  19  16  88 CALM      29.99F FOG
WHITEFIELD     LGT SNOW  22  19  89 CALM      30.01F FOG
JAFFREY        LGT SNOW  22  18  85 VRB5      30.04F FOG
KEENE          MOCLDY    23  19  86 CALM      30.08F
LEBANON        CLOUDY    22  18  85 CALM      30.06F
MT WASHINGTON  SNOW       5   5 100 NW48        N/A  VSB 1/16WCI -24
$$

VTZ005-007-008-020600-
VERMONT

CITY           SKY/WX    TMP DP  RH WIND       PRES   REMARKS
ST JOHNSBURY     N/A     22  19  89 MISG      30.03F
MONTPELIER     LGT SNOW  20  16  84 S7        30.04F FOG
BURLINGTON     FLURRIES  24  17  74 S12       30.06F WCI  13
$$

MAZ007-012-024-CTZ003-RIZ002-NYZ038-NYZ072-020600-
SOUTHERN NEW ENGLAND AND NY

CITY           SKY/WX    TMP DP  RH WIND       PRES   REMARKS
BOSTON         LGT SNOW  29  26  89 SW10      30.12F FOG     WCI  20
WORCESTER      LGT SNOW  24  21  88 W10       30.03F FOG     WCI  14
NANTUCKET      LGT RAIN  35  34  96 N5        30.08F FOG
PROVIDENCE     LGT SNOW  29  27  92 CALM      30.11F FOG
HARTFORD       LGT SNOW  28  24  85 S6        30.11F FOG
ALBANY         LGT SNOW  24  19  81 S9        30.12F
NEW YORK CITY  CLOUDY    29  26  89 CALM      30.15F FOG
$$

ANZ081-ANZ082-ANZ150-NHZ014-MEZ023>029-020600-
COASTAL MARINE OBSERVATIONS

STATION/POSITION TIME  TEMP    WIND        PRES    WAVE
                       AIR SEA DIR/SP/G            HT/PER
                 (UTC) (F)     (DEG/KT/KT) (MB)    (FT/S)
MOUNT DESERT ROC 0500   32                 1018.1F
MATINICUS ROCK   0400   32     230/ 24/ 26 1020.3F
WELLS            0400   26     240/  3/  6 1019.6F
ISLE OF SHOALS   0400   27     230/ 14/ 15 1019.7F
JEFFREYS LEDGE   0421      40                N/A     4/ 5
CASHES LEDGE BUO 0450   34 39              1018.4F   5/ 6
$$

.............KEY..............
   WCI - WIND CHILL
   TC  - TEMPERATURE IN CELSIUS
   VSB - VISIBILITY IN MILES
   HX  - HEAT INDEX
   FAIR- INDICATES FEW OR NO CLOUDS BELOW 12,000 FT, WITH NO
         SIGNIFICANT WEATHER AND/OR OBSTRUCTIONS TO VISIBILITY.




USA.gov is the U.S. government's official web portal to all federal, state and local government web resources and services.